[Iaude] MPEC M85: 2015 UH67 [a=7.82,e=0.15,i=27.4,H=13.3]

mpec at marsden.cfa.harvard.edu mpec at marsden.cfa.harvard.edu
Tue Jun 23 10:22:26 EDT 2020


M.P.E.C. 2020-M85                                 Issued 2020 June 23, 14:19 UT

     The Minor Planet Electronic Circulars contain information on unusual
         minor planets and routine data on comets.  They are published
    on behalf of Division F of the International Astronomical Union by the
          Minor Planet Center, Smithsonian Astrophysical Observatory,
                          Cambridge, MA 02138, U.S.A.

             Prepared using the Tamkin Foundation Computer Network

                              MPC at CFA.HARVARD.EDU
            URL https://www.minorplanetcenter.net/    ISSN 1523-6714

                                   2015 UH67                                    


Additional Observations:
     K15U67H &C2014 09 17.18519700 49 18.56 -17 09 37.2                VEM085W84
     K15U67H &C2014 09 17.26071800 49 16.63 -17 09 44.8                VEM085W84
     K15U67H &C2015 09 04.32063702 03 37.10 +01 56 49.7          21.4 iVEM085W84
     K15U67H &C2015 09 04.32289902 03 37.09 +01 56 49.4                VEM085W84
     K15U67H &C2015 12 28.08680601 26 52.17 +02 35 37.6          21.4 iVEM085W84
     K15U67H &C2015 12 28.14019701 26 52.15 +02 35 46.6          21.3 iVEM085W84
     K15U67H &C2015 12 28.14086801 26 52.14 +02 35 46.8                VEM085W84
     K15U67H OC2016 09 07.46366503 12 14.40 +19 20 52.5                VEM085568
     K15U67H OC2016 09 07.50963803 12 14.17 +19 20 57.5          21.6 iVEM085568
     K15U67H  C2016 10 25.51000 02 57 58.269+20 07 01.84         21.5 wLEM085F51
     K15U67H  C2016 10 25.52399 02 57 57.870+20 07 01.73         21.6 wLEM085F51
     K15U67H  C2016 10 25.53790 02 57 57.464+20 07 01.94         21.5 wLEM085F51
     K15U67H  C2016 10 25.55194 02 57 57.070+20 07 01.99         21.6 wLEM085F51

Observer details:
568 Mauna Kea.  Observer .  Measurer S. Deen.
F51 Pan-STARRS 1, Haleakala.  Observers B. Gibson, T. Goggia, S. Kahale, A.
    Schultz, M. Willman.  Measurers K. Chambers, S. Chastel, L. Denneau, H.
    Flewelling, M. Huber, E. Lilly, E. Magnier, R. Wainscoat, C. Waters, R.
    Weryk.  1.8-m Ritchey-Chretien + CCD.
W84 Cerro Tololo-DECam.  Observer .  Measurer S. Deen.  4.0-m reflector + CCD.

Orbital elements:
2015 UH67
Epoch 2020 May 31.0 TT = JDT 2459000.5                  Pike
M  79.01268              (2000.0)            P               Q
n   0.04509887     Peri.  338.99576     +0.91684101     -0.26508254
a   7.8167389      Node    40.45595     +0.39919656     +0.62116580
e   0.1492332      Incl.   27.39464     -0.00668312     +0.73748511
P  21.85           H   13.4           G   0.15           U   2
Residuals in seconds of arc
140917 W84  0.0   0.0     151022 291  0.3+  1.3-    151228 W84  0.1+  0.2-
140917 W84  0.0   0.0     151022 291  0.0   0.1-    151228 W84  0.4+  0.3-
150904 W84  0.1+  0.1+    151022 291  0.4-  0.4-    151228 W84  0.2+  0.2-
150904 W84  0.4+  0.1-    151023 291  0.7-  0.1+    160907 568  0.0   0.1+
151019 F51  0.2+  0.0     151023 291  0.5-  0.7-    160907 568  0.0   0.1+
151019 F51  0.0   0.3+    151023 291  0.2+  0.2+
151019 F51  0.2-  0.3+    151228 W84  0.1+  0.2-

Ephemeris:
2015 UH67                a,e,i = 7.82, 0.15, 27                  q = 6.6502
Date    TT    R. A. (2000) Decl.     Delta      r    Elong.  Phase     V
2020 05 24    07 34 06.1 +46 17 48   8.3795  7.7605    49.5     5.7    22.8
...
2020 06 08    07 44 48.5 +45 36 37   8.5311  7.7744    39.5     4.8    22.8
...
2020 06 16    07 50 53.4 +45 15 55   8.5960  7.7818    34.6     4.3    22.8
...
2020 06 22    07 55 34.8 +45 01 02   8.6369  7.7873    31.4     3.9    22.8
2020 06 23    07 56 22.3 +44 58 37   8.6430  7.7882    30.9     3.8    22.8
2020 06 24    07 57 09.8 +44 56 12   8.6490  7.7891    30.4     3.8    22.8
...
2020 06 30    08 01 57.8 +44 42 08   8.6804  7.7947    27.7     3.5    22.8
...
2020 07 08    08 08 26.9 +44 24 21   8.7112  7.8020    25.1     3.2    22.8
...
2020 07 23    08 20 44.0 +43 54 28   8.7335  7.8158    23.9     3.0    22.8

M. P. C. Staff               (C) Copyright 2020 MPC           M.P.E.C. 2020-M85




More information about the Iaude mailing list